User: anonymous   Login
Location: Owatonna
(44.0840°N, 93.2260°W)
Time: 14:42:29
(UTC-06:00)
Language:

Tiangong 1 - Orbit

View from above orbital plane
View from above orbital plane
View from above satellite
View from above satellite

Ground track
Ground track

The orbit data is extracted from the following two-line orbital elements,

1 37820U 11053A   14324.44381691  .00080139  00000-0  52580-3 0  5912
2 37820 042.7681 089.0795 0009987 342.5794 089.8159 15.74705920180598
Epoch (UTC): 20 November 2014 10:39:05
Eccentricity: 0.0009987
inclination: 42.7681°
perigee height: 339 km
apogee height: 352 km
right ascension of ascending node: 89.0795°
argument of perigee: 342.5794°
revolutions per day: 15.74705920
mean anomaly at epoch: 89.8159°
orbit number at epoch: 18059

The dashed part of the orbit path shows where the satellite is in the earth's shadow,  

DLR